Location: Dannhausen
(51.8650°N, 10.1026°E)
Time: 23:28:32
(UTC+00:00)

Cosmos 968 Rocket - Pass Details

Date: 09 April 2020
Orbit: 741 x 771 km, 74.0° (Epoch: 29 May)

Event Time Altitude Azimuth Distance (km) Brightness Sun altitude
Exits shadow 22:25:36 59° 33° (NNE) 886 3.9 -28.9°
Drops below altitude 10° 22:29:52 10° 26° (NNE) 2,321 6.6 -29.1°
Sets 22:32:15 0° 26° (NNE) 3,254 7.4 -29.2°
